星链-30617 (STARLINK-30617 )

导读 | 星芒AI

STARLINK-30617 是 SpaceX 星链计划中的一颗低轨通信卫星,属于星链第三代组网卫星的一部分。该卫星于2024年发射,旨在增强全球互联网覆盖,提供更高速度和更低延迟的网络服务。它运行在约550公里高的近地轨道,配备先进通信设备,支持宽带数据传输。作为星链系统的重要节点,STARLINK-30617 有助于提升偏远地区的网络接入能力,推动全球数字化发展。

基本信息
目录编号:
58104
目录名称:
STARLINK-30617
国际标识:
2023-161H
轨道中心:
EARTH
卫星名称:
星链-30617
卫星全名:
星链-30617 (STARLINK-30617 )
卫星状态:
在轨 (已飞行741 天)
发射日期:
2023-10-21 UTC
国别 :
美国 (US)
星等 :
--
轨道信息
数据来源 国际轨道数据
星历时间: 2025-10-31T00:34:52+0800
14小时前
查看轨道信息
半长轴: 6853.378km
偏心率: 0.0001187
轨道倾角: 53.161°
近地点辐角 104.289°
升交点赤经 49.492°
平近点角 255.825°
近地点: 474.429km
远地点: 476.057km
周期: 94.106分钟
每日圈数: 15.301916
详细信息
固有亮度:
5
最大亮度:
0.3
卫星平台:
Starlink v2.0 mini
覆盖范围:
全球
运营商:
太空探索技术公司
运营商所在国:
美国
制造商(研发单位):
太空探索技术公司
制造商所在国:
美国
使用方式:
暂无
卫星简介
星链(Starlink)计划是由太空探索技术公司(SpaceX)提出的一个巨型低轨卫星互联网星座项目,计划在2019年至2024年间在太空搭建由约1.2万颗卫星组成的“星链”网络,其中1584颗将部署在地球上空550千米处的近地轨道,并从2020年开始工作。该卫星仍在工作。
2D轨道图
3D轨道图
轨道高度分析图
轨道倾角分析图
轨道综合分析图
查看轨道综合分析图